Regional Weather Roundup
Issued by NWS Goodland, KS

Home | Current Version | Previous Version | Text Only | Print | Product List | Glossary Off
Versions: 1 2 3 4 5 6 7 8 9 10 11 12 13 14 15 16 17 18 19 20 21 22 23 24 25 26 27 28 29 30 31 32 33 34 35 36 37 38 39 40 41 42 43 44 45 46 47 48 49 50

000
ASUS43 KGLD 261208
RWRGLD

GOODLAND FORECAST AREA HOURLY WEATHER ROUNDUP
NATIONAL WEATHER SERVICE GOODLAND KS
600 AM MDT WED JUL 26 2017

...OFFICIAL OBSERVATIONS...

CITY           SKY/WX    TMP DP  RH WIND       PRES   REMARKS
GOODLAND KS    CLOUDY    71  64  78 NW16      30.01R
HILL CITY KS   MOCLDY    75  70  84 E7        29.91R
IMPERIAL NEB   CLOUDY    69  66  90 N12       30.01R
MCCOOK NEB     MOCLDY    71  70  96 NE12      29.92R
AKRON CO       CLOUDY    67  61  81 N10       30.15R
BURLINGTON CO  PTCLDY    68  61  78 NW12      30.07R
LIMON CO       CLOUDY    60  58  92 NW7       30.20R
$$

...UNOFFICIAL OBSERVATIONS...

CITY           SKY/WX    TMP DP  RH WIND       PRES   REMARKS
LENORA KS        N/A     75  32  20 MISG        N/A
NORTON KS      CLEAR     73  64  73 E9        29.89S
SHARON SPRINGS   N/A     68  64  85 NW8         N/A
TRENTON NEB      N/A     70  32  24 N7          N/A
KIT CARSON CO    N/A     69  60  72 MISG        N/A
YUMA CO        CLOUDY    66  55  68 N12G20    30.09R
$$



USA.gov is the U.S. government's official web portal to all federal, state and local government web resources and services.